Regional Weather Roundup
Issued by NWS

Home | Current Version | Previous Version | Text Only | Print | Product List | Glossary Off
Versions: 1 2 3 4 5 6 7 8 9 10 11 12 13 14 15 16 17 18 19 20 21 22 23 24 25 26 27 28 29 30 31 32 33 34 35 36 37 38 39 40 41 42 43 44 45 46 47 48 49 50

000
ASUS45 KABQ 240810
RWRNM
NEW MEXICO REGIONAL WEATHER ROUNDUP
NATIONAL WEATHER SERVICE ALBUQUERQUE NM
200 AM MDT SAT JUN 24 2017

NOTE: "FAIR" MEANS FEW OR NO CLOUDS BELOW 12,000 FEET AGL WITH NO
       SIGNIFICANT WEATHER OR OBSTRUCTIONS TO VISION.

      THIS PRODUCT IS RELEASED AS TWO VERSIONS.  ONE VERSION NEAR
      THE TOP OF THE HOUR CONTAINING PRELIMINARY DATA FROM ALBUQUERQUE
      AND OTHER STATIONS.  A FINAL VERSION WITH ADDITIONAL DATA IS
      ISSUED ABOUT 10 MINUTES AFTER THE HOUR.

NMZ501-503-504-510>518-240900-
NORTHWEST PLATEAU/NORTHCENTRAL MOUNTAINS

CITY           SKY/WX    TMP DP  RH WIND       PRES   REMARKS
FARMINGTON     FAIR      63  18  17 N6        30.13R
LOS ALAMOS     MOCLDY    63  50  62 SW10G16   30.37S
SANTA FE       FAIR      66  52  60 S9        30.29R
TAOS           FAIR      61  43  51 SE17      30.35R
ANGEL FIRE     CLOUDY    55  46  72 S8        30.46S

$$
NMZ402-403-502-505>509-240900-
WESTCENTRAL MOUNTAINS/SOUTHWEST MOUNTAINS

CITY           SKY/WX    TMP DP  RH WIND       PRES   REMARKS
GALLUP         FAIR      59  28  30 CALM      30.21R
GRANTS         FAIR      69  50  51 SE20      30.26S
SILVER CITY    FAIR      76  55  47 E10       30.13S

$$
NMZ407-409-411-412-240900-
SOUTHERN DESERTS

CITY           SKY/WX    TMP DP  RH WIND       PRES   REMARKS
DEMING         FAIR      82  58  43 NE10      30.03S
LAS CRUCES     FAIR      82  50  32 SE14G23   30.07S
HOLLOMAN AFB   FAIR      83  57  41 NE10      30.07R
ALAMOGORDO     FAIR      82  55  39 NE16      30.05F
T OR C         FAIR      79  56  45 N15       30.11R

$$
NMZ519>523-240900-
CENTRAL VALLEYS/CENTRAL HIGHLANDS

CITY           SKY/WX    TMP DP  RH WIND       PRES   REMARKS
ALBUQUERQUE    FAIR      72  53  51 E24G33    30.19R
DOUBLE EAGLE   FAIR      69  54  58 E17G23    30.24S
MORIARTY ARPT  CLOUDY    67  51  57 E5        30.34S
CLINES CORNERS CLOUDY    59  47  64 E23G30    30.37S
BELEN          FAIR      72  51  48 NW6       30.18R
SOCORRO        FAIR      76  56  50 NW6G16    30.17R

$$
NMZ524>526-539-540-240900-
SOUTHCENTRAL MOUNTAINS

CITY           SKY/WX    TMP DP  RH WIND       PRES   REMARKS
RUIDOSO        CLOUDY    64  57  77 E9        30.36S

$$
NMZ527>531-240900-
NORTHEAST HIGHLANDS/NORTHEAST PLAINS

CITY           SKY/WX    TMP DP  RH WIND       PRES   REMARKS
LAS VEGAS      CLOUDY    59  47  64 E7        30.40S
RATON          MOCLDY    57  47  69 W5        30.36S
CLAYTON        CLOUDY    59  47  64 NE6       30.31F

$$
NMZ532>537-240900-
EASTCENTRAL PLAINS

CITY           SKY/WX    TMP DP  RH WIND       PRES   REMARKS
SANTA ROSA     CLOUDY    66  49  54 E16       30.26F
TUCUMCARI      CLOUDY    67  49  52 E15       30.24S
CANNON AFB     FAIR      65  50  58 NE17      30.23F
CLOVIS AIRPORT FAIR      64  50  60 NE15      30.23F

$$
NMZ028-029-538-240900-
SOUTHEAST PLAINS

CITY           SKY/WX    TMP DP  RH WIND       PRES   REMARKS
ROSWELL        FAIR      78  62  57 NE13      30.12R
ARTESIA        FAIR      77  52  41 CALM      30.11S
CARLSBAD       FAIR      75  54  47 CALM      30.06F
HOBBS          FAIR      70  61  73 NE7       30.13F


$$




USA.gov is the U.S. government's official web portal to all federal, state and local government web resources and services.